CST,Max TemperatureF,Mean TemperatureF,Min TemperatureF,Max Dew PointF,MeanDew PointF,Min DewpointF,Max Humidity, Mean Humidity, Min Humidity, Max Sea Level PressureIn, Mean Sea Level PressureIn, Min Sea Level PressureIn, Max VisibilityMiles, Mean VisibilityMiles, Min VisibilityMiles, Max Wind SpeedMPH, Mean Wind SpeedMPH, Max Gust SpeedMPH,PrecipitationIn, CloudCover, Events, WindDirDegrees
2011-11-1,55,48,41,42,36,34,90,71,47,30.06,29.96,29.90,10,10,10,9,5,,0.01,6,Rain,185
2011-11-2,50,38,26,36,32,24,93,75,50,30.26,30.17,30.06,10,10,9,6,2,,0.00,4,,344
2011-11-3,52,36,19,29,21,16,96,70,26,30.35,30.29,30.25,10,10,10,5,1,,0.00,0,,230
2011-11-4,55,36,18,30,20,11,89,61,18,30.33,30.25,30.13,10,10,10,14,3,21,0.00,0,,174
2011-11-5,54,44,36,41,35,30,82,69,61,30.13,29.97,29.79,10,10,9,16,9,30,0.00,1,,169
2011-11-6,54,48,43,44,39,26,83,71,51,29.91,29.73,29.58,10,9,7,16,11,29,0.00,5,,192
2011-11-7,46,36,26,26,22,18,88,57,41,30.26,30.10,29.93,10,10,10,10,7,25,0.00,0,,238
2011-11-8,46,34,21,30,23,21,96,71,39,30.26,30.22,30.19,10,10,10,4,0,,0.00,0,,-1
2011-11-9,41,36,30,32,28,23,89,73,59,30.18,29.98,29.86,10,10,10,10,3,17,0.00,3,,335
2011-11-10,36,34,28,29,26,19,88,75,59,30.01,29.94,29.83,10,9,2,7,4,,0.00,8,Snow,280
2011-11-11,45,36,26,26,23,19,85,63,42,29.96,29.72,29.60,10,10,10,15,3,23,0.00,3,,199
2011-11-12,63,42,21,36,27,18,92,60,22,29.61,29.48,29.24,10,10,10,14,3,21,0.00,0,,178
2011-11-13,51,43,32,35,32,28,85,67,48,29.47,29.29,29.18,10,10,9,8,5,,0.00,3,,222
2011-11-14,50,39,28,30,28,25,92,61,44,29.63,29.47,29.40,10,10,8,13,4,21,0.00,3,Rain,225
2011-11-15,46,35,24,34,25,19,96,62,44,29.81,29.67,29.58,10,10,10,12,5,28,0.00,4,Rain,271
2011-11-16,32,28,23,21,14,10,78,59,43,30.09,29.99,29.82,10,10,4,13,7,29,0.00,6,Snow,270
2011-11-17,24,18,12,16,12,8,88,70,54,30.14,30.09,30.00,10,10,10,8,5,16,0.00,6,,242
2011-11-18,42,33,24,28,21,10,88,61,51,29.94,29.77,29.68,10,10,10,9,5,,0.00,5,Rain,162
2011-11-19,32,28,23,29,25,20,93,89,76,30.13,29.86,29.70,10,4,0,8,3,16,0.14,8,Fog-Snow,15
2011-11-20,24,18,12,19,17,9,93,86,77,30.39,30.29,30.10,10,10,10,6,2,,0.00,8,,272
2011-11-21,32,26,21,27,23,17,89,83,75,30.36,30.30,30.22,10,9,6,8,4,,0.00,7,,198
2011-11-22,36,32,28,30,28,26,92,85,79,30.28,30.19,30.09,10,8,5,9,3,,0.00,6,,164
2011-11-23,39,36,32,36,33,30,93,88,79,30.13,30.08,30.02,6,5,2,9,4,18,0.00,5,,206
2011-11-24,53,45,37,42,38,35,93,76,59,30.00,29.86,29.71,10,7,3,13,7,20,0.00,2,,194
2011-11-25,48,39,30,45,41,30,100,89,74,29.78,29.73,29.69,10,6,2,7,2,,0.00,5,,138
2011-11-26,46,39,32,45,39,28,100,95,85,30.00,29.80,29.70,10,6,1,8,3,,0.34,8,Rain-Snow,94
2011-11-27,32,29,26,28,24,20,93,82,72,30.22,30.10,29.96,10,9,4,8,5,18,0.00,8,Rain-Snow,319
2011-11-28,32,29,26,26,24,22,89,82,73,30.25,30.12,30.00,10,10,9,12,6,20,0.00,4,,206
2011-11-29,36,24,10,24,16,6,88,72,44,30.36,30.26,30.12,10,10,10,5,1,,0.00,0,,160
2011-11-30,37,24,10,29,19,6,93,77,42,30.13,30.02,29.94,10,8,2,5,1,,0.01,5,Snow,203